Regional Weather Roundup
Issued by NWS Sioux Falls, SD

Home | Current Version | Previous Version | Graphics & Text | Print | Product List | Glossary On
Versions: 1 2 3 4 5 6 7 8 9 10 11 12 13 14 15 16 17 18 19 20 21 22 23 24 25 26 27 28 29 30 31 32 33 34 35 36 37 38 39 40 41 42 43 44 45 46 47 48 49 50
000
ASUS43 KFSD 280110
RWRFSD

WEATHER ROUNDUP FOR SE SOUTH DAKOTA/SW MINNESOTA/NW IOWA
NATIONAL WEATHER SERVICE SIOUX FALLS SD
800 PM CDT WED AUG 27 2014

NOTE: "FAIR" INDICATES FEW OR NO CLOUDS BELOW 12,000 FEET WITH NO
SIGNIFICANT WEATHER AND OR OBSTRUCTIONS TO VISIBILITY.


SDZ038>040-050-052>070-280200-
SOUTHEAST SOUTH DAKOTA

CITY           SKY/WX    TMP DP  RH WIND       PRES   REMARKS
CHAMBERLAIN    CLOUDY    69  65  87 SE8       30.04R
HURON          MOCLDY    72  64  76 SE7       30.04F
MADISON        CLOUDY    68  68 100 SE6       30.09S
MITCHELL       CLOUDY    71  67  87 E7        30.04F
SIOUX FALLS    MOCLDY    70  66  87 E8        30.07F
WINNER         CLOUDY    71  66  84 SE12      30.03S
YANKTON        CLOUDY    70  66  88 E8        30.04F
$$

MNZ071-072-080-081-089-090-097-098-280200-
SOUTHWEST MINNESOTA

CITY           SKY/WX    TMP DP  RH WIND       PRES   REMARKS
FAIRMONT       CLEAR     64  57  77 E5        30.10S
JACKSON        MOCLDY    68  61  77 E3        30.12S
LUVERNE        CLOUDY    70  64  83 SE3       30.09S
MARSHALL       CLOUDY    72  57  60 SE9       30.09S
MONTEVIDEO     PTCLDY    68  61  77 SE3       30.10S
PIPESTONE      CLOUDY    70  64  83 SE3       30.10S
REDWOOD FALLS  CLEAR     70  59  68 SE5       30.10S
TRACY          CLOUDY    71  63  74 SE3       30.11S
WINDOM         CLEAR     68  61  77 CALM      30.11S
WORTHINGTON    MOCLDY    68  64  88 E5        30.12S
$$

IAZ001>003-012>014-020>022-031-032-NEZ013-014-SDZ071-280200-
NORTHWEST IOWA

CITY           SKY/WX    TMP DP  RH WIND       PRES   REMARKS
DENISON        MOCLDY    70  70 100 E7        30.07S
ESTHERVILLE    PTCLDY    66  63  90 NE5       30.10
LE MARS        CLOUDY    72  68  88 CALM      30.07S
ORANGE CITY    CLOUDY    72  66  83 E3        30.08S
SHELDON        MOCLDY    68  66  94 CALM      30.08S
SIOUX CITY     CLOUDY    71  68  90 SE6       30.06
SPENCER        CLOUDY    71  65  81 E3        30.10
STORM LAKE     CLOUDY    68  68 100 SE5       30.10R
$$

ABBREVIATIONS USED IN REMARKS
   TC - TEMPERATURE IN CELSIUS
  WCI - WIND CHILL INDEX
   HX - HEAT INDEX
  VSB - VISIBILITY



USA.gov is the U.S. government's official web portal to all federal, state and local government web resources and services.